[[{"header":{"parameterUnit":"m.s-1","parameterCategory":1,"la1":30.2991,"la2":30.254,"lo1":-89.0895,"lo2":-89.0444,"dy":0.0017,"dx":0.0017,"nx":28,"ny":28,"refTime":"2025-03-23T03:00:00:Z","depth":0,"parameterNumber":2,"parameterNumberName":"U-component_of_WINDS"},"data":[0,0,0,0,0,0,0,0,0,0,0,0,0,0,0,0,0,0,0,0,0,0,0,0,0,0,0,0,0,0,0,0,0,0,0,0,0,0,0,0,0,0,0,0,0,0,0,0,0,0,0,0,0,0,0,0,0,0,-2.5216,-2.5216,0,-2.5218,-2.5218,-2.5218,-2.5194,-2.5194,-2.5193,-2.5192,-2.5194,-2.5195,-2.5195,0,0,0,0,0,0,0,0,0,0,0,0,0,-2.5195,-2.5196,-2.5216,-2.5216,-2.5216,-2.5218,-2.5218,-2.5218,-2.5194,-2.5194,-2.5193,-2.5192,-2.5194,-2.5195,-2.5196,0,0,0,0,0,0,0,0,0,0,0,0,0,-2.5201,-2.5196,-2.5216,-2.5205,-2.5204,-2.5218,-2.5218,-2.5218,-2.5194,-2.5194,-2.5193,-2.5192,-2.5194,-2.5195,-2.5196,-2.5221,0,0,-2.5199,-2.5199,0,0,0,0,0,0,0,0,-2.5201,-2.5202,-2.5206,-2.5205,-2.5204,-2.5205,-2.5211,-2.5219,-2.5195,-2.5198,-2.5192,-2.5191,-2.5199,-2.5199,-2.5201,-2.5221,-2.5221,-2.5199,-2.5199,-2.52,-2.52,0,0,0,0,0,0,0,-2.52,-2.5202,-2.5217,-2.5206,-2.5205,-2.52,-2.52,-2.5212,-2.5204,-2.5198,-2.5196,-2.5196,-2.5198,-2.5201,-2.5201,-2.5221,-2.5199,-2.5199,-2.52,-2.52,-2.5262,-2.5263,0,0,0,0,0,0,-2.5201,-2.5202,-2.5217,-2.5217,-2.52,-2.5201,-2.5201,-2.5206,-2.5203,-2.5202,-2.5197,-2.5195,-2.5199,-2.52,-2.5201,-2.5231,-2.52,-2.5201,-2.5201,-2.5261,-2.5263,-2.5264,0,0,0,0,0,0,-2.5201,-2.5203,-2.5216,-2.5209,-2.521,-2.5203,-2.5208,-2.5206,-2.5209,-2.5203,-2.5202,-2.5201,-2.5199,-2.52,-2.5216,-2.523,-2.5201,-2.5202,-2.526,-2.5262,-2.5263,-2.5289,0,0,0,0,0,0,-2.5201,-2.5203,-2.5212,-2.5209,-2.5211,-2.5231,-2.5209,-2.5207,-2.521,-2.5208,-2.5207,-2.5205,-2.5198,-2.5215,-2.5217,-2.5231,-2.5203,-2.5259,-2.5261,-2.5263,-2.5287,-2.5292,-2.5296,0,0,0,0,0,-2.52,-2.5219,-2.5212,-2.5214,-2.5221,-2.5232,-2.5233,-2.5223,-2.5212,-2.5221,-2.5218,-2.5205,-2.5229,-2.5217,-2.5219,-2.5234,-2.5258,-2.526,-2.5263,-2.5285,-2.5291,-2.5295,0,0,0,0,0,0,-2.5223,-2.5218,-2.5211,-2.5229,-2.5231,-2.5228,-2.5238,-2.5229,-2.5234,-2.5232,-2.5221,-2.5221,-2.5239,-2.5238,-2.5225,-2.5259,-2.5241,-2.5244,-2.5258,-2.5263,-2.5267,-2.5266,-2.5203,0,0,0,0,0,-2.523,-2.5238,-2.5234,-2.5251,-2.5252,-2.5246,-2.525,-2.5243,-2.5244,-2.5245,-2.5243,-2.5245,-2.5253,-2.5258,-2.5265,-2.5288,-2.5288,-2.5299,-2.5303,-2.5307,-2.5309,-2.5322,-2.5327,-2.5272,-2.5272,-2.5272,0,0,-2.5245,-2.5243,-2.5249,-2.5256,-2.5256,-2.5266,-2.5246,-2.5257,-2.5264,-2.5247,-2.5262,-2.5261,-2.5263,-2.5283,-2.5291,-2.5282,-2.5325,-2.531,-2.5313,-2.5313,-2.5325,-2.533,-2.5335,-2.5273,-2.5273,-2.5273,0,0,-2.5276,-2.5276,-2.529,-2.5292,-2.5293,-2.5289,-2.5293,-2.5291,-2.529,-2.5305,-2.5293,-2.5302,-2.5316,-2.5318,-2.5321,-2.5357,-2.5346,-2.5359,-2.538,-2.5393,-2.5397,-2.5401,-2.5414,-2.5418,-2.5362,-2.5362,-2.5362,0,-2.5294,-2.5307,-2.5299,-2.5311,-2.5314,-2.53,-2.5315,-2.5317,-2.5321,-2.5324,-2.5314,-2.5333,-2.5333,-2.5353,-2.5362,-2.5365,-2.5369,-2.5358,-2.5397,-2.5401,-2.5404,-2.5416,-2.5421,-2.5364,-2.5363,-2.5363,-2.5363,0,-2.533,-2.534,-2.5351,-2.5355,-2.5361,-2.5374,-2.5368,-2.5375,-2.5369,-2.5366,-2.5382,-2.5383,-2.539,-2.5395,-2.5389,-2.5415,-2.541,-2.5399,-2.5381,-2.5411,-2.5422,-2.5427,-2.5366,-2.5365,-2.5365,-2.5364,0,0,-2.5373,-2.5374,-2.5378,-2.538,-2.5382,-2.539,-2.5404,-2.5411,-2.5417,-2.5422,-2.5433,-2.5446,-2.5437,-2.544,-2.5435,-2.5446,-2.5475,-2.5434,-2.5434,-2.5441,-2.5504,-2.5511,-2.5517,-2.5469,-2.547,-2.547,-2.5504,0,-2.5403,-2.5425,-2.5419,-2.5442,-2.5451,-2.5439,-2.5451,-2.5455,-2.5453,-2.5462,-2.5461,-2.547,-2.5457,-2.5459,-2.547,-2.5469,-2.5487,-2.5467,-2.5479,-2.548,-2.5477,-2.5522,-2.5529,-2.5561,-2.5508,-2.5509,-2.551,0,-2.544,-2.5446,-2.547,-2.5472,-2.5475,-2.5486,-2.5493,-2.5502,-2.5506,-2.5504,-2.5509,-2.5502,-2.5517,-2.5501,-2.5521,-2.5507,-2.5513,-2.5513,-2.5514,-2.5514,-2.5495,-2.5522,-2.5571,-2.5575,-2.5516,-2.5516,-2.5515,0,-2.5468,-2.5483,-2.5499,-2.5501,-2.5504,-2.5512,-2.5514,-2.5517,-2.5522,-2.5529,-2.5533,-2.5542,-2.5546,-2.5553,-2.5549,-2.5538,-2.5571,-2.5554,-2.557,-2.557,-2.5575,-2.5574,-2.5624,-2.5581,-2.5581,-2.5581,-2.5581,0,-2.5502,-2.5517,-2.5512,-2.5521,-2.5538,-2.5532,-2.5549,-2.555,-2.5553,-2.5564,-2.5555,-2.5565,-2.5559,-2.5569,-2.5567,-2.5584,-2.5586,-2.5586,-2.5584,-2.5586,-2.5586,-2.5588,-2.5585,-2.5582,-2.5582,-2.5582,-2.5581,0,-2.5535,-2.5532,-2.5549,-2.5551,-2.5552,-2.5565,-2.5566,-2.5576,-2.5575,-2.5589,-2.5592,-2.559,-2.5602,-2.5599,-2.5612,-2.561,-2.5632,-2.5628,-2.563,-2.5629,-2.5644,-2.5643,-2.5696,-2.5703,-2.5656,-2.5657,-2.5657,0,-2.5556,-2.5567,-2.5571,-2.5577,-2.5579,-2.559,-2.5595,-2.5591,-2.5598,-2.5605,-2.5614,-2.5625,-2.5633,-2.5652,-2.5653,-2.5663,-2.5659,-2.5677,-2.566,-2.5662,-2.5659,-2.5657,-2.5659,-2.568,-2.568,-2.5681,-2.5681,0,-2.5593,-2.5591,-2.56,-2.5609,-2.5616,-2.5623,-2.5628,-2.5634,-2.5631,-2.5639,-2.5651,-2.5657,-2.5671,-2.5682,-2.5692,-2.5695,-2.5688,-2.5687,-2.5691,-2.5691,-2.5692,-2.5691,-2.5638,-2.5685,-2.5685,-2.5684,-2.5684,-2.5684,-2.562,-2.5629,-2.5634,-2.5644,-2.5649,-2.5655,-2.5664,-2.5665,-2.5675,-2.5685,-2.5683,-2.5697,-2.5703,-2.5715,-2.5719,-2.573,-2.5723,-2.5729,-2.5731,-2.5732,-2.5734,-2.5691,-2.5732,-2.5732,-2.5732,-2.5732,-2.5732,0,-2.5656,-2.5659,-2.5668,-2.5677,-2.5686,-2.5679,-2.5686,-2.5694,-2.5706,-2.5712,-2.5721,-2.5735,-2.5747,-2.5749,-2.576,-2.5769,-2.5766,-2.5772,-2.5771,-2.5772,-2.5739,-2.5734,-2.5774,-2.5774,-2.5774,-2.5774,-2.5774,-2.5774,-2.5675,-2.5691,-2.5691,-2.571,-2.5713,-2.5726,-2.5731,-2.5737,-2.5742,-2.5759,-2.5768,-2.577,-2.5775,-2.5787,-2.5798,-2.5798,-2.5802,-2.5809,-2.5809,-2.5778,-2.5774,-2.577,-2.5765,-2.5811,-2.5811,-2.584,-2.584,-2.584]},{"header":{"parameterUnit":"m.s-1","parameterCategory":1,"la1":30.2991,"la2":30.254,"lo1":-89.0895,"lo2":-89.0444,"dy":0.0017,"dx":0.0017,"nx":28,"ny":28,"refTime":"2025-03-23T03:00:00:Z","depth":0,"parameterNumber":3,"parameterNumberName":"V-component_of_WINDS"},"data":[0,0,0,0,0,0,0,0,0,0,0,0,0,0,0,0,0,0,0,0,0,0,0,0,0,0,0,0,0,0,0,0,0,0,0,0,0,0,0,0,0,0,0,0,0,0,0,0,0,0,0,0,0,0,0,0,0,0,6.27,6.27,0,6.275,6.275,6.2751,6.275,6.275,6.2749,6.2748,6.2795,6.2797,6.2799,0,0,0,0,0,0,0,0,0,0,0,0,0,6.2602,6.2604,6.2699,6.27,6.2701,6.275,6.275,6.2751,6.2751,6.275,6.2749,6.2748,6.2795,6.2797,6.2799,0,0,0,0,0,0,0,0,0,0,0,0,0,6.2647,6.2604,6.2699,6.2707,6.2708,6.275,6.275,6.2751,6.2751,6.275,6.2749,6.2748,6.2794,6.2797,6.28,6.2836,0,0,6.2808,6.2809,0,0,0,0,0,0,0,0,6.2645,6.2651,6.2705,6.2706,6.2707,6.2743,6.2733,6.278,6.2751,6.2734,6.2748,6.2747,6.2778,6.2782,6.2794,6.2839,6.2841,6.2808,6.281,6.2811,6.2812,0,0,0,0,0,0,0,6.2642,6.2649,6.2719,6.2706,6.2707,6.2707,6.2712,6.2742,6.2761,6.2736,6.2736,6.2742,6.2779,6.2791,6.2795,6.2841,6.2808,6.2811,6.2812,6.2813,6.2923,6.2924,0,0,0,0,0,0,6.2637,6.2646,6.2718,6.2721,6.2673,6.2709,6.2715,6.2732,6.2761,6.2764,6.2743,6.2742,6.2787,6.2792,6.2797,6.2845,6.2811,6.2814,6.2815,6.2922,6.2923,6.2925,0,0,0,0,0,0,6.2635,6.2644,6.2716,6.2684,6.2693,6.2712,6.2731,6.2734,6.2746,6.2766,6.2769,6.2752,6.2786,6.2793,6.2828,6.2846,6.2815,6.2818,6.292,6.2922,6.2924,6.2939,0,0,0,0,0,0,6.2632,6.2643,6.2657,6.2684,6.2694,6.2746,6.2732,6.2736,6.2752,6.2751,6.2776,6.2779,6.2786,6.2824,6.2831,6.2849,6.282,6.2919,6.2921,6.2923,6.2937,6.2941,6.2945,0,0,0,0,0,6.2629,6.2657,6.2658,6.2666,6.2713,6.2747,6.2753,6.2762,6.2753,6.2768,6.2781,6.2778,6.2843,6.2827,6.2835,6.2855,6.2918,6.2921,6.2923,6.2935,6.294,6.2944,0,0,0,0,0,0,6.2629,6.266,6.2661,6.2699,6.2721,6.2747,6.2765,6.2767,6.279,6.2788,6.2797,6.2803,6.2839,6.285,6.2832,6.2894,6.2879,6.2884,6.2885,6.2891,6.2894,6.2891,6.2822,0,0,0,0,0,6.2634,6.266,6.2686,6.2717,6.2728,6.2745,6.276,6.2767,6.2788,6.2797,6.2813,6.2833,6.2859,6.2875,6.2899,6.2939,6.2945,6.2956,6.296,6.2963,6.2967,6.2992,6.2999,6.2934,6.2934,6.2934,0,0,6.2643,6.2664,6.2679,6.2718,6.2735,6.2763,6.2753,6.2781,6.2801,6.28,6.2836,6.2849,6.2872,6.2911,6.2929,6.2921,6.2987,6.2967,6.2969,6.2971,6.2996,6.3002,6.3008,6.2936,6.2935,6.2935,0,0,6.2674,6.2692,6.2722,6.2741,6.2769,6.2781,6.2788,6.2815,6.2825,6.2861,6.2862,6.2886,6.2929,6.2947,6.2962,6.3006,6.3005,6.3014,6.3034,6.3058,6.3063,6.3068,6.3086,6.3092,6.3017,6.3017,6.3017,0,6.2682,6.2724,6.2736,6.2767,6.2785,6.2788,6.2819,6.2836,6.287,6.2882,6.2874,6.2932,6.2947,6.2992,6.3004,6.3014,6.3024,6.3011,6.3062,6.3067,6.3071,6.3088,6.3095,6.3018,6.3018,6.3018,6.3018,0,6.2734,6.2763,6.2784,6.282,6.284,6.287,6.2887,6.2906,6.2912,6.2925,6.2963,6.2983,6.3014,6.3025,6.3028,6.3071,6.3066,6.306,6.3045,6.3078,6.3095,6.3101,6.302,6.3019,6.3019,6.3019,0,0,6.2763,6.281,6.2817,6.2836,6.2869,6.2892,6.2923,6.2956,6.2973,6.2997,6.3024,6.3063,6.3059,6.3076,6.3082,6.3104,6.3141,6.3095,6.3096,6.3105,6.3193,6.3198,6.3205,6.3141,6.3142,6.3143,6.3191,0,6.2799,6.2857,6.2872,6.2921,6.295,6.2957,6.2985,6.3008,6.3023,6.3049,6.3064,6.3092,6.3083,6.3095,6.3116,6.3132,6.3159,6.3128,6.3167,6.3168,6.3162,6.3214,6.3218,6.3263,6.3198,6.3199,6.3199,0,6.2849,6.2878,6.2932,6.2966,6.2979,6.3003,6.3037,6.3062,6.309,6.3099,6.312,6.3126,6.316,6.3144,6.3192,6.3171,6.3187,6.3198,6.32,6.3204,6.3186,6.3221,6.3277,6.3284,6.3209,6.3208,6.3208,0,6.2868,6.292,6.2961,6.2976,6.3016,6.3034,6.3051,6.3078,6.3099,6.3127,6.3141,6.3172,6.3189,6.3213,6.3227,6.3214,6.3275,6.3259,6.3284,6.3284,6.3296,6.3295,6.3357,6.3305,6.3305,6.3305,6.3305,0,6.2908,6.294,6.2971,6.2995,6.3033,6.305,6.3087,6.3104,6.3129,6.3158,6.3164,6.319,6.3207,6.3236,6.3247,6.3286,6.3293,6.3302,6.3305,6.3302,6.3301,6.3313,6.3311,6.3307,6.3306,6.3306,6.3305,0,6.2935,6.2956,6.3001,6.3037,6.3047,6.3074,6.3105,6.3129,6.3145,6.3181,6.3191,6.3215,6.325,6.3267,6.3308,6.3316,6.3362,6.3362,6.3353,6.3355,6.3379,6.3378,6.3452,6.3464,6.3402,6.3403,6.3403,0,6.2959,6.2985,6.3026,6.3048,6.3066,6.3099,6.3121,6.3139,6.3162,6.3199,6.3219,6.3255,6.3285,6.334,6.3361,6.3394,6.3396,6.342,6.3401,6.3399,6.3399,6.3398,6.3402,6.3423,6.3424,6.3424,6.3425,0,6.3001,6.3011,6.3044,6.3082,6.3109,6.3138,6.3167,6.3184,6.3207,6.3232,6.327,6.3293,6.3339,6.3375,6.3411,6.3428,6.3431,6.3431,6.3439,6.3437,6.3432,6.3437,6.3364,6.3429,6.3429,6.3428,6.3428,6.3428,6.3028,6.3054,6.3088,6.3125,6.315,6.3179,6.3205,6.3227,6.3259,6.33,6.3308,6.3349,6.3379,6.3428,6.3447,6.3479,6.3473,6.3484,6.3487,6.349,6.3492,6.3427,6.3485,6.3485,6.3485,6.3485,6.3485,0,6.3072,6.3096,6.313,6.3173,6.3203,6.3207,6.324,6.3265,6.3301,6.3331,6.3362,6.3407,6.3443,6.3469,6.3506,6.3527,6.3529,6.3536,6.3535,6.3539,6.3494,6.3484,6.3533,6.3533,6.3533,6.3533,6.3533,6.3533,6.3098,6.3143,6.3159,6.3217,6.324,6.3282,6.3301,6.3328,6.3353,6.3404,6.3435,6.3453,6.3482,6.3522,6.3556,6.3562,6.3576,6.3583,6.359,6.3547,6.3542,6.3537,6.3528,6.3586,6.3586,6.3633,6.3634,6.3634]}]]